FW7161 Weather Reports


Display with metric or nautical units.
time (UTC)temp
F
wind
direction
speed
MPH
gust
MPH
rain 1hr
in
rain 24hr
in
rain mn
in
humidity
%
barometer
mb
20260506041241 31 346 0.0 0.0 0.00 0.12 0.12 99 1018.2
20260506035738 31 347 0.0 0.0 0.00 0.12 0.12 99 1018.2
20260506034235 31 348 0.0 0.0 0.00 0.12 0.12 99 1017.7
20260506032732 31 348 0.0 0.0 0.00 0.12 0.12 99 1017.8
20260506031229 32 348 0.0 0.0 0.00 0.12 0.12 99 1017.8
20260506025727 32 350 0.0 0.0 0.00 0.12 0.12 99 1017.2
20260506024223 32 5 0.0 0.0 0.07 0.12 0.12 99 1017.1
20260506022719 33 85 0.0 0.0 0.00 0.11 0.11 99 1016.9
20260506021217 33 88 0.0 0.0 0.00 0.11 0.11 99 1016.5
20260506015715 33 88 0.0 0.0 0.00 0.11 0.11 99 1016.6
20260506014211 33 123 0.0 0.0 0.00 0.11 0.11 99 1016.3
20260506012707 33 96 0.0 0.0 0.00 0.11 0.11 99 1016.0
20260506011203 33 92 0.0 0.0 0.00 0.11 0.11 99 1015.5
20260506005702 33 100 0.0 0.0 0.00 0.11 0.11 99 1015.8
20260506004158 33 98 0.0 0.0 0.00 0.11 0.11 99 1016.3
20260506002658 33 120 0.0 0.0 0.00 0.11 0.11 99 1016.0
20260506001153 33 110 0.0 0.0 0.00 0.11 0.11 99 1015.9
20260505235651 33 122 0.0 0.0 0.05 0.11 0.11 99 1015.5
20260505234148 33 133 1.0 3.0 0.00 0.10 0.10 99 1015.5
20260505232646 34 102 0.0 0.0 0.07 0.10 0.10 99 1015.3
20260505231144 35 118 3.0 5.0 0.00 0.09 0.09 99 1015.0
20260505225640 35 114 3.0 7.0 0.00 0.09 0.09 99 1015.0
20260505224137 35 117 0.0 0.0 0.00 0.09 0.09 99 1015.0
20260505222632 34 86 1.0 2.0 0.05 0.09 0.09 99 1014.8
20260505221128 35 112 0.0 0.0 0.00 0.08 0.08 99 1014.9
20260505215626 35 110 0.0 0.0 0.00 0.08 0.08 99 1015.3
20260505214124 35 111 0.0 0.0 0.00 0.08 0.08 98 1015.4
20260505212620 35 128 0.0 0.0 0.00 0.08 0.08 98 1015.7
20260505211118 35 109 0.0 2.0 0.00 0.08 0.08 98 1015.9
20260505205615 35 118 0.0 2.0 0.00 0.08 0.08 98 1015.7
20260505204113 35 109 2.0 5.0 0.00 0.08 0.08 98 1015.8
20260505202608 35 114 2.0 5.0 0.00 0.08 0.08 98 1015.9
20260505201105 35 117 1.0 3.0 0.00 0.08 0.08 98 1016.3
20260505195601 35 123 3.0 5.0 0.00 0.08 0.08 98 1016.8
20260505194057 35 103 0.0 0.0 0.00 0.08 0.08 98 1016.6
20260505192556 35 99 0.0 0.0 0.00 0.08 0.08 98 1016.4
20260505191055 35 94 0.0 2.0 0.07 0.08 0.08 98 1016.8
20260505185554 35 111 3.0 3.0 0.00 0.07 0.07 98 1017.0
20260505184050 35 99 1.0 3.0 0.05 0.07 0.07 98 1017.0
20260505182546 35 131 4.0 6.0 0.00 0.06 0.06 98 1017.1
20260505181043 35 118 6.0 8.0 0.00 0.06 0.06 98 1017.1
20260505175543 35 113 7.0 9.0 0.07 0.06 0.06 97 1017.4
20260505174039 35 100 0.0 0.0 0.00 0.05 0.05 97 1017.7
20260505172537 35 90 2.0 3.0 0.07 0.04 0.04 97 1017.7
20260505171036 35 131 7.0 9.0 0.05 0.03 0.03 97 1017.5
20260505165536 36 88 0.0 1.0 0.07 0.02 0.02 97 1017.7
20260505164032 37 97 0.0 0.0 0.00 0.01 0.01 97 1017.7
20260505162532 37 133 0.0 0.0 0.05 0.01 0.01 96 1017.6
20260505161029 37 115 0.0 2.0 0.00 0.00 0.00 96 1017.7
20260505152517 38 113 0.0 0.0 0.00 0.00 0.00 95 1017.8
20260505151017 37 103 0.0 0.0 0.00 0.00 0.00 95 1017.8
20260505123953 39 100 0.0 0.0 0.00 0.00 0.00 92 1017.1
20260505122449 39 93 0.0 0.0 0.00 0.00 0.00 92 1016.6
20260505120944 39 83 0.0 0.0 0.00 0.00 0.00 92 1016.4
20260505115443 39 94 0.0 0.0 0.00 0.00 0.00 91 1016.1
20260505113939 40 139 0.0 0.0 0.00 0.00 0.00 90 1016.3
20260505112435 40 101 0.0 0.0 0.00 0.00 0.00 88 1016.1
20260505110934 41 101 0.0 0.0 0.00 0.00 0.00 86 1016.1
20260505100922 39 276 0.0 0.0 0.00 0.00 0.00 90 1015.8
20260505095418 40 127 0.0 0.0 0.00 0.00 0.00 89 1016.1
20260505093913 41 113 0.0 0.0 0.00 0.00 0.00 88 1015.7
20260505092411 41 318 0.0 0.0 0.00 0.00 0.00 87 1015.7
20260505090909 42 336 0.0 0.0 0.00 0.00 0.00 87 1015.9
20260505085408 42 338 0.0 0.0 0.00 0.00 0.00 86 1015.8
20260505083908 42 329 0.0 0.0 0.00 0.00 0.00 85 1015.9
20260505082408 43 39 0.0 0.0 0.00 0.00 0.00 85 1016.1
20260505080905 43 52 0.0 0.0 0.00 0.00 0.00 85 1016.3
20260505075405 43 49 0.0 0.0 0.00 0.00 0.00 86 1016.4
20260505073903 44 0 0.0 0.0 0.00 0.00 0.00 88 1016.3
20260505072359 44 51 0.0 0.0 0.00 0.00 0.00 88 1016.6
20260505070856 44 336 0.0 0.0 0.00 0.00 0.00 87 1016.8
20260505065356 44 356 0.0 0.0 0.00 0.00 0.00 86 1016.6
20260505063855 44 35 0.0 0.0 0.00 0.00 0.00 85 1016.6
20260505062355 44 38 0.0 0.0 0.00 0.00 0.00 84 1016.5
20260505060853 45 11 0.0 0.0 0.00 0.00 0.00 78 1016.8
20260505055354 46 320 0.0 0.0 0.00 0.02 0.02 81 1017.1
20260505053852 46 359 0.0 0.0 0.00 0.02 0.02 79 1017.0
20260505052348 46 338 0.0 0.0 0.00 0.02 0.02 80 1016.8
20260505050847 46 357 0.0 0.0 0.00 0.02 0.02 78 1016.5